Location: Newark
(11.2914°S, 14.4718°E)
Time: 02:45:22
(UTC+00:00)

Tiros 1 despin weight - Pass Details

Date: 21 September 2019
Orbit: 594 x 643 km, 48.2° (Epoch: 15 October)

Event Time Altitude Azimuth Distance (km) Brightness Sun altitude
Rises 19:33:39 0° 341° (NNW) 2,812 - -38.8°
Reaches altitude 10° 19:36:09 10° 352° (N) 1,920 - -39.5°
Maximum altitude 19:39:57 28° 52° (NE) 1,122 - -40.4°
Drops below altitude 10° 19:43:48 10° 112° (ESE) 1,953 - -41.3°
Sets 19:46:21 0° 123° (ESE) 2,870 - -41.9°
